Temperature
-0 1 0 0 0 -0 -1 -1 -0 0 0 1 -0 -1 -1 -0 -0 -1 -1 -1 -1 -1 -0 -0 -0 -0 -0 -0 -0 -0 -0 -0 -0 -1 -1 -1 -1 -1 -1 -1 -0 -0 -0 0
-1 -0 -0 -0 -0 -0 -0 -1 -1 -1 -0 -1 -1 -1 -1 -1 -2 -2 -1 -1 -1 -1 -1 -1 -1 -1 -1 -1 -1 -1 -1 -1 -1 -1 -1 -1 -1 -1 -1 -1 -1 -1 -1 -1
-1 -1 -1 -1 -1 -1 -1 -2 -2 -1 -0 -2 -2 -3 -2 -2 -2 -2 -2 -2 -2 -2 -1 -1 -1 -1 -1 -1 -1 -2 -2 -1 -2 -2 -2 -2 -2 -2 -2 -2 -2 -2 -2 -2
-2 -2 -1 -0 -2 -2 -2 -2 -3 -3 -3 -3 -3 -3 -3 -3 -3 -3 -3 -3 -3 -2 -2 -2 -2 -2 -2 -2 -2 -2 -2 -2 -2 -3 -3 -3 -3 -3 -3 -3 -2 -2 -2 -2
-3 -3 -2 -2 -3 -4 -3 -3 -4 -4 -4 -3 -4 -4 -4 -3 -3 -4 -3 -3 -3 -3 -3 -3 -3 -3 -3 -3 -3 -3 -3 -3 -3 -3 -4 -4 -4 -3 -3 -3 -3 -3 -3 -3
-3 -3 -2 -1 -3 -3 -3 -3 -4 -5 -5 -4 -5 -4 -5 -4 -4 -4 -4 -4 -4 -4 -4 -3 -3 -4 -4 -4 -4 -4 -4 -4 -4 -4 -4 -4 -4 -4 -4 -4 -4 -4 -4 -4
-3 -3 -3 -3 -4 -4 -2 -2 -4 -4 -5 -5 -6 -5 -4 -4 -4 -4 -4 -4 -4 -4 -4 -4 -4 -4 -4 -4 -4 -4 -4 -4 -5 -5 -5 -5 -5 -5 -5 -5 -5 -5 -5 -5
-5 -4 -3 -4 -5 -4 -3 -4 -4 -4 -4 -5 -5 -5 -5 -5 -5 -5 -5 -5 -5 -5 -5 -5 -5 -5 -5 -5 -5 -5 -5 -5 -5 -5 -5 -5 -5 -5 -6 -6 -6 -6 -6 -5
-4 -3 -4 -4 -4 -4 -4 -4 -4 -4 -5 -5 -6 -6 -6 -6 -6 -6 -6 -6 -6 -6 -6 -6 -6 -6 -6 -6 -6 -6 -6 -6 -6 -6 -6 -6 -6 -6 -6 -6 -7 -7 -7 -6
-6 -6 -6 -5 -5 -5 -5 -5 -5 -5 -6 -6 -6 -6 -7 -7 -7 -7 -7 -7 -7 -7 -6 -6 -6 -7 -7 -7 -7 -7 -7 -7 -7 -7 -7 -7 -7 -7 -7 -7 -7 -7 -7 -7
-6 -7 -7 -6 -6 -5 -5 -6 -6 -6 -6 -7 -7 -7 -7 -7 -7 -8 -8 -8 -7 -8 -7 -7 -7 -7 -8 -8 -8 -8 -7 -7 -7 -7 -7 -7 -7 -7 -7 -7 -8 -8 -8 -8
-5 -6 -7 -6 -6 -6 -6 -7 -7 -7 -7 -7 -8 -8 -8 -8 -8 -8 -8 -8 -8 -8 -8 -8 -8 -8 -8 -8 -9 -8 -8 -8 -8 -8 -8 -8 -8 -8 -8 -8 -8 -8 -8 -8
-6 -6 -6 -6 -7 -7 -7 -8 -8 -8 -8 -8 -9 -9 -9 -9 -9 -9 -9 -9 -9 -9 -9 -9 -9 -9 -9 -9 -9 -9 -9 -9 -9 -9 -9 -9 -9 -9 -9 -9 -9 -9 -9 -9
-7 -7 -8 -8 -8 -8 -8 -9 -9 -9 -9 -9 -10 -10 -10 -10 -10 -10 -10 -10 -10 -10 -10 -10 -10 -10 -10 -10 -10 -10 -10 -10 -10 -10 -10 -10 -10 -10 -10 -10 -9 -9 -9 -9
-8 -8 -8 -9 -9 -9 -10 -10 -10 -10 -10 -10 -11 -11 -11 -11 -11 -11 -11 -11 -11 -11 -11 -11 -11 -11 -11 -11 -11 -11 -11 -11 -11 -11 -11 -10 -10 -10 -10 -10 -10 -10 -10 -10
-9 -9 -9 -10 -10 -10 -11 -11 -11 -11 -11 -12 -12 -12 -12 -12 -12 -12 -12 -12 -12 -12 -12 -12 -12 -12 -12 -11 -11 -11 -11 -11 -11 -11 -11 -11 -11 -11 -11 -11 -11 -11 -11 -11
-10 -11 -10 -11 -11 -11 -11 -12 -12 -12 -12 -12 -13 -13 -13 -13 -13 -12 -12 -13 -13 -12 -12 -12 -12 -12 -12 -12 -12 -12 -12 -12 -12 -12 -12 -12 -12 -12 -12 -12 -12 -12 -11 -11
-11 -11 -11 -11 -12 -12 -12 -12 -12 -13 -13 -13 -13 -13 -13 -13 -13 -13 -13 -13 -13 -13 -13 -13 -13 -13 -13 -13 -13 -13 -13 -13 -13 -13 -13 -13 -13 -13 -13 -13 -12 -12 -12 -12
-11 -12 -12 -12 -12 -12 -13 -13 -13 -13 -13 -13 -13 -14 -14 -14 -14 -14 -14 -14 -14 -13 -13 -13 -14 -14 -13 -13 -13 -13 -13 -13 -13 -13 -13 -13 -13 -13 -13 -13 -13 -13 -13 -12
-12 -12 -12 -12 -13 -13 -13 -13 -13 -14 -14 -14 -14 -14 -14 -14 -14 -14 -15 -14 -14 -14 -14 -14 -14 -14 -14 -14 -14 -14 -14 -14 -14 -14 -14 -14 -14 -14 -14 -14 -13 -13 -13 -13
-13 -13 -13 -13 -13 -13 -14 -14 -14 -14 -14 -14 -14 -14 -15 -15 -15 -15 -15 -15 -15 -15 -15 -15 -15 -15 -15 -14 -14 -14 -14 -14 -14 -14 -14 -14 -14 -14 -14 -14 -14 -14 -14 -14
-13 -13 -13 -14 -14 -14 -14 -14 -14 -15 -15 -15 -15 -15 -15 -15 -15 -15 -15 -15 -15 -15 -15 -15 -15 -15 -15 -15 -15 -15 -15 -15 -15 -15 -15 -15 -15 -15 -15 -15 -15 -15 -14 -14
-13 -14 -14 -14 -14 -14 -14 -15 -15 -15 -15 -15 -15 -15 -15 -16 -16 -16 -16 -16 -16 -16 -16 -16 -16 -16 -16 -16 -15 -15 -15 -15 -15 -15 -15 -15 -15 -15 -15 -15 -15 -15 -15 -15
-14 -14 -14 -14 -14 -15 -15 -15 -15 -15 -15 -15 -16 -16 -16 -16 -16 -16 -16 -16 -16 -16 -16 -16 -16 -16 -16 -16 -16 -16 -16 -16 -16 -16 -16 -16 -16 -16 -16 -15 -15 -15 -15 -15
-14 -14 -15 -15 -15 -15 -15 -15 -15 -15 -16 -16 -16 -16 -16 -16 -16 -16 -16 -16 -16 -16 -16 -16 -16 -16 -16 -16 -16 -16 -16 -16 -16 -16 -16 -16 -16 -16 -16 -16 -16 -16 -16 -16
-15 -15 -15 -15 -15 -15 -16 -16 -16 -16 -16 -16 -16 -16 -16 -16 -17 -17 -17 -17 -17 -17 -17 -16 -16 -16 -16 -16 -16 -16 -16 -16 -16 -17 -17 -17 -17 -17 -16 -16 -16 -16 -16 -16
-15 -15 -15 -15 -15 -16 -16 -16 -16 -16 -16 -16 -16 -16 -17 -17 -17 -17 -17 -17 -17 -17 -17 -17 -17 -17 -17 -17 -17 -17 -17 -17 -17 -17 -17 -17 -17 -17 -17 -16 -16 -16 -16 -16
Wind_Speed
8 7 5 8 9 9 10 10 10 11 11 13 9 6 6 5 4 3 3 4 4 5 5 5 4 4 4 4 3 3 4 4 5 4 3 3 3 4 4 4 4 5 5 4
5 6 6 9 11 12 12 10 11 11 14 9 5 3 4 5 4 4 5 5 6 6 6 6 6 5 4 4 4 4 5 5 4 3 3 4 4 3 4 4 4 4 5 5
5 4 3 9 10 12 8 8 8 13 12 5 4 5 6 5 4 5 6 6 6 7 6 6 6 5 5 5 4 4 4 4 4 4 4 4 4 4 4 4 4 4 5 5
2 1 7 7 3 6 8 9 9 8 6 5 5 5 4 3 3 5 5 6 6 6 6 6 5 4 4 3 3 3 4 4 4 3 4 4 4 4 4 3 4 4 5 5
3 5 9 7 3 4 6 7 6 8 8 6 4 2 4 2 2 4 5 6 6 6 6 5 4 4 3 3 3 3 4 4 4 4 4 4 4 5 4 3 4 4 4 5
4 4 8 7 2 2 2 5 4 5 6 5 1 2 5 3 4 5 5 5 5 5 4 4 4 2 2 3 3 4 4 4 3 3 4 5 5 5 3 3 4 4 4 4
6 7 8 6 2 2 3 6 1 2 3 3 3 4 4 4 5 4 5 6 5 4 4 4 4 2 2 3 4 4 4 3 3 3 4 4 4 3 3 3 3 3 4 4
5 6 9 3 4 5 5 1 0 1 1 2 3 3 4 4 4 5 5 5 5 4 4 4 3 3 3 4 4 4 3 3 3 3 2 2 2 2 3 3 3 3 3 3
8 8 4 3 4 3 1 2 1 1 2 2 2 3 4 4 4 4 4 4 4 4 5 5 4 3 4 5 4 3 3 3 3 2 2 2 2 3 3 3 3 3 3 4
5 7 5 4 2 2 1 2 2 1 1 1 3 4 4 4 4 4 4 4 4 4 4 5 6 5 4 5 4 3 3 3 3 2 2 1 2 2 3 3 4 4 4 4
7 6 4 4 4 4 2 1 1 2 1 2 3 4 4 4 4 4 4 4 3 4 4 5 5 5 5 5 4 3 3 3 3 2 2 2 2 2 3 3 4 5 5 5
8 6 5 4 2 2 2 2 2 2 2 2 2 3 3 3 4 4 4 4 4 4 5 5 5 5 5 5 4 3 3 3 3 2 2 2 2 2 3 4 5 6 6 6
5 3 3 2 1 0 1 1 1 1 1 2 2 2 2 3 3 3 4 4 5 5 5 5 5 5 5 5 4 3 3 3 3 2 2 2 2 2 3 3 5 5 5 5
2 1 2 2 1 0 0 1 1 1 1 1 1 2 2 2 3 4 4 5 5 5 5 5 5 5 6 5 5 4 3 4 3 2 2 2 2 2 3 3 3 3 4 5
2 1 2 1 1 2 2 1 1 2 2 2 2 2 2 3 4 5 5 5 4 4 5 5 5 6 6 5 4 4 3 3 3 2 2 2 2 2 2 3 3 3 3 3
1 1 1 0 1 1 1 1 1 2 2 2 3 3 3 3 4 4 5 4 3 4 5 5 5 6 5 5 4 4 3 5 4 2 2 2 2 2 2 2 2 2 2 3
2 1 1 2 2 2 2 2 2 2 2 3 3 3 3 3 3 4 4 4 3 4 4 4 5 6 5 4 4 3 3 4 5 3 2 2 2 2 2 2 2 2 3 3
3 3 3 3 3 3 2 2 2 2 2 3 3 2 2 3 3 4 4 4 4 4 5 5 5 5 5 5 4 3 3 3 3 3 3 3 2 2 2 2 2 2 3 3
0 0 0 1 1 2 2 2 2 2 2 2 2 2 3 3 3 4 4 3 4 5 6 6 8 5 5 6 5 2 3 3 3 3 3 4 3 2 2 2 2 2 2 2
0 1 1 1 1 0 1 1 1 2 2 1 1 2 3 3 3 3 3 3 3 4 6 6 5 4 5 5 5 2 2 2 3 3 3 2 2 2 2 2 2 2 2 2
1 0 0 0 1 1 1 1 1 2 2 1 1 2 3 4 3 3 2 4 5 5 5 7 4 4 4 4 5 2 2 2 3 3 2 2 2 2 2 2 2 2 2 2
1 1 1 0 0 1 2 1 1 1 2 2 2 2 2 3 3 3 3 3 5 7 5 4 4 6 6 5 2 2 2 3 3 3 2 2 2 2 2 2 2 3 2 2
1 1 1 1 1 1 2 2 1 1 2 2 2 3 3 3 3 3 4 4 4 7 5 3 6 8 7 3 2 2 2 3 3 3 3 3 3 3 3 3 3 3 3 3
2 1 1 1 0 0 1 2 2 2 2 3 3 3 3 3 3 3 3 6 8 7 4 6 8 8 6 3 2 2 3 3 3 3 3 3 3 3 3 3 3 3 3 3
2 1 1 1 1 2 2 2 2 2 2 2 3 3 3 3 3 4 4 5 7 6 4 6 8 8 4 3 3 3 3 3 3 3 3 3 3 3 3 3 3 3 3 3
1 2 2 2 2 2 2 2 2 2 2 3 3 3 3 3 3 3 3 4 5 6 4 4 5 5 3 3 3 4 3 4 4 3 3 3 3 3 3 3 4 4 4 4
1 1 1 1 2 2 2 2 3 3 3 3 4 4 3 3 3 3 4 4 4 4 4 4 3 3 3 3 4 4 4 3 3 3 3 3 3 3 4 4 4 4 4 5
Wind_Direction
252 258 235 242 238 217 218 222 227 247 252 264 260 253 258 260 258 261 276 284 280 276 274 275 274 273 268 266 257 232 216 222 229 230 227 226 225 225 224 220 220 211 205 209
265 254 249 260 248 232 232 232 239 257 266 266 272 262 267 262 249 256 272 281 283 284 285 281 269 265 267 263 256 238 223 227 229 223 222 222 222 221 221 222 222 211 208 209
260 282 305 265 238 220 222 219 214 240 255 270 273 273 265 258 248 259 272 282 285 284 279 279 274 267 258 261 259 239 235 232 228 218 221 225 221 217 220 220 219 218 213 215
254 335 244 247 210 206 221 243 233 242 258 261 257 275 286 268 254 279 290 291 290 289 287 286 280 275 267 263 249 239 244 238 232 223 224 223 216 219 222 222 221 224 221 220
203 239 269 282 241 189 205 258 238 235 254 265 278 303 296 272 271 277 283 284 285 286 288 289 283 273 271 272 256 244 252 247 239 228 225 223 224 227 224 224 231 231 226 219
196 221 244 259 240 207 145 273 250 219 251 264 243 263 276 301 314 305 302 299 300 304 308 303 298 279 265 276 274 260 263 263 250 235 226 227 229 229 228 229 236 239 241 234
221 236 261 264 241 133 188 253 266 216 244 219 208 230 271 312 318 311 313 318 322 324 320 310 311 297 273 283 281 287 292 287 264 245 238 236 231 226 219 225 232 237 245 249
198 220 253 227 139 186 229 283 241 249 248 223 238 271 294 309 313 317 324 330 335 336 330 330 330 323 303 297 305 312 309 299 278 257 249 249 227 225 217 214 222 232 242 254
200 218 247 189 203 235 225 224 244 218 258 241 255 275 288 302 306 312 317 323 331 330 331 335 339 334 310 311 319 320 323 312 305 292 268 250 223 220 216 212 216 227 229 241
245 258 257 256 263 281 275 236 244 233 254 241 257 278 285 294 302 309 316 319 325 327 326 327 332 332 317 318 323 325 319 315 312 304 291 274 244 222 218 218 220 229 234 239
251 269 289 270 243 244 253 286 301 290 263 254 262 282 283 291 298 301 309 314 316 314 311 315 325 327 326 330 333 325 315 312 310 302 284 279 263 239 235 236 228 229 232 234
237 233 218 247 230 211 209 258 269 273 293 308 275 276 291 296 301 305 311 314 315 315 314 315 322 323 327 330 329 320 318 317 309 298 288 277 263 286 276 266 262 256 251 247
245 256 236 243 258 236 221 260 295 278 272 295 305 288 292 298 310 317 317 318 313 311 311 314 320 322 326 328 326 316 306 307 304 299 289 276 268 259 280 295 285 278 269 264
266 270 256 246 245 323 88 21 18 4 340 308 304 318 320 317 322 322 316 313 315 320 320 321 324 323 326 328 326 322 315 304 309 305 297 282 268 266 261 259 281 294 297 287
278 247 224 255 47 41 40 46 33 351 337 337 336 327 322 318 315 314 315 320 329 331 329 329 327 323 326 328 327 324 321 317 316 310 301 290 279 273 271 263 263 279 301 301
271 49 84 125 262 333 13 2 307 300 312 319 321 317 311 307 307 313 321 328 332 325 322 322 320 320 324 326 327 323 315 314 324 315 307 302 290 278 276 278 276 269 269 280
161 247 257 261 263 275 263 259 258 276 294 300 303 310 318 326 326 324 324 325 316 310 314 320 319 321 323 325 324 322 322 320 325 328 321 313 301 285 283 283 284 287 287 284
201 217 221 222 232 249 272 279 269 279 283 286 301 315 318 315 308 309 317 326 331 332 330 326 324 327 328 328 326 324 326 326 327 325 325 319 314 305 292 286 284 287 300 303
155 197 217 215 205 207 245 271 280 287 294 297 301 304 305 301 298 302 314 327 334 329 323 318 327 338 330 325 332 321 324 326 328 328 323 317 326 332 323 310 299 292 293 299
94 87 92 60 53 188 252 277 283 290 290 284 291 305 310 309 309 312 316 315 306 299 302 313 324 326 321 318 329 327 325 322 320 318 318 318 316 317 316 311 308 304 302 299
212 161 95 58 353 317 269 260 256 274 289 285 273 282 293 302 305 305 311 316 315 314 315 324 332 321 315 320 326 341 333 323 315 310 308 310 311 313 313 311 309 309 307 305
201 202 224 228 269 311 311 303 278 280 296 301 297 295 302 308 314 312 292 286 299 319 331 320 319 321 330 339 348 339 329 325 321 317 313 312 308 306 308 310 309 308 308 307
205 202 206 219 245 282 314 318 299 283 283 285 288 290 290 290 296 302 306 306 307 317 331 316 319 325 335 355 345 327 319 316 315 312 310 306 301 298 299 302 302 303 303 301
190 199 220 229 183 275 301 299 299 292 284 282 277 273 275 291 300 288 281 303 317 322 323 317 324 327 340 355 332 319 312 307 303 303 306 304 302 301 299 298 300 301 298 294
190 185 180 192 225 250 263 281 299 299 299 300 297 292 283 268 269 287 295 300 312 323 320 320 325 329 339 325 313 303 298 292 292 296 296 302 302 299 297 296 293 294 293 288
192 214 228 241 245 247 250 259 273 281 288 297 303 301 298 294 287 289 294 300 303 316 322 315 314 320 320 309 302 297 294 297 303 302 291 289 288 289 291 292 290 287 285 282
210 224 241 269 263 251 252 256 261 269 273 274 286 291 294 300 302 302 302 305 308 308 306 306 305 304 303 302 301 300 296 293 290 288 285 282 283 282 282 282 284 283 282 282
Height
1488 1486 1486 1485 1484 1487 1489 1487 1487 1477 1475 1467 1466 1466 1466 1465 1464 1463 1463 1462 1460 1459 1457 1456 1455 1454 1454 1454 1454 1454 1453 1453 1454 1455 1455 1456 1457 1457 1458 1459 1459 1460 1461 1462
1489 1484 1484 1483 1479 1480 1480 1480 1479 1475 1470 1464 1464 1464 1463 1462 1461 1460 1459 1458 1457 1456 1454 1452 1451 1450 1449 1449 1449 1449 1449 1448 1449 1449 1450 1451 1451 1452 1453 1453 1454 1455 1456 1457
1489 1485 1484 1481 1473 1473 1473 1472 1473 1469 1464 1462 1463 1461 1460 1459 1458 1457 1456 1455 1454 1452 1451 1449 1448 1446 1445 1445 1444 1444 1444 1444 1444 1444 1445 1446 1446 1446 1447 1447 1448 1449 1450 1451
1491 1489 1485 1469 1467 1466 1467 1466 1466 1464 1462 1461 1460 1459 1457 1457 1456 1454 1453 1452 1450 1449 1447 1445 1444 1443 1442 1441 1441 1440 1439 1439 1439 1439 1439 1440 1440 1441 1441 1442 1442 1443 1444 1445
1491 1489 1478 1468 1465 1466 1466 1464 1461 1460 1459 1458 1457 1457 1455 1454 1453 1452 1451 1449 1447 1445 1443 1441 1440 1439 1438 1437 1436 1435 1435 1435 1435 1434 1435 1435 1435 1436 1436 1436 1436 1437 1438 1439
1488 1485 1477 1463 1462 1461 1464 1463 1457 1456 1456 1455 1455 1458 1454 1452 1451 1449 1448 1446 1444 1441 1439 1438 1436 1435 1434 1433 1432 1431 1431 1431 1431 1430 1430 1430 1431 1431 1431 1431 1431 1432 1433 1434
1483 1481 1472 1463 1461 1462 1466 1459 1455 1454 1453 1453 1454 1454 1452 1450 1448 1446 1444 1442 1440 1438 1436 1435 1434 1432 1430 1429 1429 1428 1428 1427 1427 1427 1427 1427 1427 1427 1427 1427 1427 1427 1428 1429
1481 1479 1471 1459 1460 1460 1456 1453 1453 1452 1452 1451 1451 1450 1449 1447 1445 1443 1441 1439 1437 1436 1434 1433 1431 1429 1427 1427 1426 1425 1425 1424 1423 1423 1423 1422 1422 1422 1423 1423 1423 1423 1423 1424
1468 1463 1457 1455 1453 1452 1452 1451 1451 1450 1450 1450 1449 1448 1447 1445 1443 1441 1439 1437 1435 1433 1431 1430 1429 1427 1425 1424 1423 1422 1421 1420 1420 1419 1419 1418 1418 1418 1419 1419 1419 1419 1419 1419
1463 1456 1453 1452 1451 1450 1449 1449 1449 1448 1448 1447 1446 1445 1444 1442 1440 1438 1436 1434 1433 1430 1428 1427 1426 1424 1422 1421 1420 1419 1418 1417 1416 1416 1415 1415 1415 1415 1415 1415 1415 1415 1415 1415
1457 1452 1450 1448 1448 1447 1447 1446 1446 1445 1445 1444 1443 1442 1440 1439 1437 1435 1434 1432 1430 1428 1426 1424 1423 1421 1420 1418 1417 1416 1415 1414 1413 1413 1412 1411 1411 1411 1411 1411 1411 1411 1411 1411
1449 1446 1447 1445 1444 1445 1444 1444 1443 1442 1441 1441 1440 1438 1437 1436 1434 1433 1431 1429 1428 1426 1424 1422 1420 1418 1417 1415 1414 1413 1412 1411 1410 1409 1409 1408 1408 1408 1408 1408 1408 1408 1408 1409
1443 1442 1442 1441 1442 1442 1441 1441 1440 1439 1438 1437 1436 1435 1434 1432 1431 1430 1428 1427 1425 1423 1421 1419 1417 1415 1414 1413 1411 1410 1409 1408 1407 1406 1406 1405 1405 1404 1404 1404 1404 1404 1404 1404
1440 1440 1439 1438 1439 1439 1438 1438 1437 1436 1435 1434 1433 1432 1431 1429 1428 1426 1425 1423 1422 1420 1418 1417 1415 1413 1412 1410 1409 1408 1407 1406 1404 1403 1403 1402 1402 1401 1401 1400 1399 1399 1400 1400
1438 1438 1437 1436 1436 1436 1435 1435 1434 1433 1432 1431 1430 1429 1428 1426 1425 1423 1422 1421 1419 1417 1416 1414 1412 1411 1409 1408 1406 1405 1404 1403 1402 1401 1400 1399 1399 1398 1398 1397 1396 1396 1396 1397
1435 1435 1434 1434 1433 1433 1432 1432 1431 1430 1430 1429 1428 1427 1425 1424 1422 1421 1420 1418 1416 1415 1413 1412 1410 1409 1407 1406 1404 1403 1402 1401 1399 1398 1397 1396 1396 1395 1394 1394 1393 1393 1393 1393
1432 1432 1432 1431 1430 1430 1430 1429 1429 1428 1427 1426 1425 1424 1423 1422 1420 1419 1417 1416 1414 1413 1412 1410 1409 1407 1406 1404 1402 1401 1399 1398 1397 1396 1395 1394 1393 1392 1391 1391 1390 1390 1390 1390
1430 1430 1429 1429 1428 1428 1427 1427 1426 1426 1425 1424 1423 1422 1421 1420 1418 1417 1415 1414 1412 1411 1410 1408 1407 1405 1404 1402 1400 1399 1397 1396 1395 1394 1393 1392 1391 1390 1389 1388 1388 1387 1387 1387
1428 1428 1427 1427 1426 1426 1425 1425 1424 1423 1423 1422 1421 1420 1419 1418 1416 1415 1413 1412 1410 1408 1407 1406 1405 1403 1402 1400 1399 1397 1395 1394 1392 1391 1390 1389 1388 1388 1387 1386 1385 1385 1384 1384
1426 1426 1425 1425 1424 1424 1423 1423 1422 1421 1420 1420 1419 1417 1417 1416 1414 1413 1411 1410 1409 1407 1406 1404 1403 1401 1400 1398 1397 1395 1393 1392 1390 1389 1388 1387 1386 1385 1384 1383 1383 1382 1381 1381
1424 1424 1423 1423 1423 1422 1422 1421 1420 1419 1419 1418 1416 1415 1414 1413 1412 1411 1409 1408 1407 1405 1404 1402 1401 1399 1398 1396 1395 1393 1391 1390 1388 1387 1385 1384 1383 1382 1381 1381 1380 1379 1379 1378
1422 1422 1422 1421 1421 1421 1420 1419 1419 1418 1417 1416 1415 1413 1412 1411 1410 1409 1407 1406 1404 1403 1402 1400 1398 1397 1396 1394 1393 1391 1389 1388 1386 1385 1383 1382 1381 1380 1379 1378 1377 1377 1376 1375
1421 1420 1420 1420 1419 1419 1418 1418 1417 1416 1415 1414 1412 1411 1410 1409 1408 1407 1405 1404 1402 1401 1400 1398 1397 1395 1394 1392 1390 1389 1387 1385 1384 1382 1381 1380 1379 1378 1377 1376 1375 1374 1373 1372
1419 1419 1418 1418 1418 1417 1416 1415 1415 1414 1413 1412 1411 1410 1409 1407 1406 1405 1404 1402 1400 1399 1397 1396 1394 1393 1391 1389 1388 1386 1385 1383 1382 1380 1379 1378 1376 1375 1374 1373 1372 1371 1370 1369
1417 1417 1417 1416 1415 1415 1414 1413 1412 1412 1411 1410 1409 1408 1406 1405 1404 1402 1401 1400 1398 1397 1395 1393 1392 1390 1389 1387 1385 1384 1382 1381 1379 1378 1376 1375 1374 1373 1372 1371 1370 1369 1368 1367
1415 1415 1415 1414 1414 1413 1412 1411 1410 1409 1408 1407 1406 1405 1404 1403 1401 1400 1399 1397 1396 1394 1393 1391 1389 1388 1386 1384 1383 1381 1380 1378 1377 1375 1374 1373 1372 1370 1369 1368 1367 1366 1365 1364
1413 1413 1413 1412 1412 1411 1410 1409 1408 1407 1406 1405 1404 1403 1401 1400 1399 1397 1396 1395 1393 1391 1390 1388 1387 1385 1383 1382 1380 1378 1377 1375 1374 1373 1371 1370 1369 1368 1367 1365 1364 1363 1362 1361